Tracking 20942 objects as of 9-Jul-2020
HD Live streaming from Space Station
objects crossing your sky now

DELTA 1 DEB

Track DELTA 1 DEB now!
10-day predictions


NORAD ID: 7940
Int'l Code: 1972-058CF
Perigee: 645.1 km
Apogee: 1,140.3 km
Inclination: 98.0 °
Period: 102.7 minutes
Semi major axis: 7263 km
RCS: 0.0419 m2 (small)
Launch date: July 23, 1972
Source: United States (US)
Launch site: AIR FORCE WESTERN TEST RANGE (AFWTR)

Note: This is SATELLITE DEBRIS
aabbcc
Your satellite tracking list
Your tracking list is empty




NASA's NSSDC Master Catalog

Two Line Element Set (TLE):
1  7940U 72058CF  20191.22597874 -.00000028 +00000-0 +53583-5 0  9999
2  7940 098.0322 074.9106 0340879 003.0836 357.2327 14.02394980416509
Source of the keplerian elements: AFSPC